Location: Doussal
(55.6167°N, 116.8333°W)
Time: 03:15:29
(UTC+00:00)

METEOR M2 - Pass Details

Date: 15 December 2023
Orbit: 818 x 826 km, 98.4° (Epoch: 25 February)

Event Time Altitude Azimuth Distance (km) Brightness Sun altitude
Rises 15:01:34 0° 13° (NNE) 3,373 ? -8.7°
Reaches altitude 10° 15:04:03 10° 5° (N) 2,435 ? -8.3°
Maximum altitude 15:08:59 38° 300° (WNW) 1,241 ? -7.7°
Drops below altitude 10° 15:13:53 10° 233° (SW) 2,417 ? -7.2°
Sets 15:16:21 0° 226° (SW) 3,345 ? -6.9°
